[Iaude] MPEC E32: 2019 EK [a=1.32,e=0.25,i=18.8,H=26.5]

mpec at mpcdb1.cfa.harvard.edu mpec at mpcdb1.cfa.harvard.edu
Sun Mar 3 19:43:17 EST 2019


M.P.E.C. 2019-E32                                Issued 2019 Mar. 4, 00:39 UT
 
     The Minor Planet Electronic Circulars contain information on unusual
         minor planets and routine data on comets.  They are published
    on behalf of Division F of the International Astronomical Union by the
          Minor Planet Center, Smithsonian Astrophysical Observatory,
                          Cambridge, MA 02138, U.S.A.

             Prepared using the Tamkin Foundation Computer Network

                              MPC at CFA.HARVARD.EDU
            URL https://www.minorplanetcenter.net/    ISSN 1523-6714


                                    2019 EK
 
Observations:
     K19E00K* C2019 03 02.28194 10 17 49.66 +00 17 57.5          18.1 GVEE032703
     K19E00K  C2019 03 02.29258 10 18 05.47 +00 26 58.2          18.9 GVEE032703
     K19E00K  C2019 03 02.35518 10 19 39.75 +01 20 15.1          18.1 GVEE032I52
     K19E00K  C2019 03 02.35594 10 19 40.93 +01 20 54.9          18.2 GVEE032I52
     K19E00K  C2019 03 02.35672 10 19 42.09 +01 21 34.1          18.6 GVEE032I52
     K19E00K KC2019 03 02.85968010 34 57.40 +08 55 21.8          18.2 VqEE032I93
     K19E00K KC2019 03 02.90270710 36 14.74 +09 36 22.8          18.3 VqEE032I93
     K19E00K KC2019 03 02.91682010 36 40.08 +09 49 52.0          18.5 VqEE032I93
     K19E00K KC2019 03 02.95207210 37 38.25 +10 23 38.6          18.5 GVEE032L01
     K19E00K KC2019 03 02.95278410 37 39.53 +10 24 19.5          18.2 GVEE032L01
     K19E00K KC2019 03 02.95378010 37 41.31 +10 25 16.6          18.4 GVEE032L01
     K19E00K IC2019 03 02.95463510 37 42.85 +10 26 06.2          18.7 GVEE032L01
     K19E00K KC2019 03 02.95548810 37 44.38 +10 26 55.1          18.3 GVEE032L01
     K19E00K KC2019 03 02.95641310 37 46.04 +10 27 48.4          18.4 GVEE032L01
     K19E00K KC2019 03 03.00159 10 39 07.93 +11 11 13.0          18.0 GVEE032595
     K19E00K KC2019 03 03.00347 10 39 11.34 +11 13 01.0          18.5 GVEE032595
     K19E00K KC2019 03 03.00533 10 39 14.72 +11 14 49.2          18.0 GVEE032595
     K19E00K KC2019 03 03.00720 10 39 18.15 +11 16 37.3          18.0 GVEE032595
     K19E00K KC2019 03 03.05000010 40 39.26 +11 58 12.4          18.3 GVEE032C95
     K19E00K KC2019 03 03.05670010 40 51.65 +12 04 41.9          18.2 GVEE032C95
     K19E00K KC2019 03 03.05913 10 40 55.50 +12 06 48.9                VEE032204
     K19E00K KC2019 03 03.06122 10 40 59.38 +12 08 50.1                VEE032204
     K19E00K KC2019 03 03.06340610 41 04.14 +12 11 11.5          18.1 GVEE032C95
     K19E00K KC2019 03 03.06346 10 41 03.58 +12 11 00.7          18.2 GVEE032204
     K19E00K KC2019 03 03.06552 10 41 07.44 +12 13 00.1                VEE032204
     K19E00K KC2019 03 03.06754 10 41 39.67 +12 24 02.0          18.1 GVEE032I19
     K19E00K KC2019 03 03.06757 10 41 11.27 +12 14 59.5                VEE032204
     K19E00K KC2019 03 03.06928 10 41 42.90 +12 25 44.5          18.0 GVEE032I19
     K19E00K KC2019 03 03.07010610 41 16.58 +12 17 40.8          18.0 GVEE032C95
     K19E00K KC2019 03 03.07110 10 41 46.31 +12 27 32.0          18.1 GVEE032I19
     K19E00K KC2019 03 03.07275 10 41 49.34 +12 29 08.8          18.2 GVEE032I19
     K19E00K KC2019 03 03.92087 11 12 48.80 +26 19 28.2          17.7  VEE032104
     K19E00K KC2019 03 03.92212 11 12 51.63 +26 20 41.6          17.9  VEE032104
     K19E00K KC2019 03 03.92337 11 12 54.47 +26 21 54.8          19.0  VEE032104
     K19E00K KC2019 03 03.92587 11 13 00.24 +26 24 22.2          18.2  VEE032104
     K19E00K KC2019 03 03.92894 11 13 03.21 +26 27 02.5          18.3 RoEE032K88
     K19E00K KC2019 03 03.93236 11 13 11.08 +26 30 23.2          18.5 RoEE032K88
 
Observer details:
104 San Marcello Pistoiese.  Observers P. Bacci, M. Maestripieri.  Measurers
    P. Bacci, L. Tesi, G. Fagioli.  0.60-m reflector + CCD.
204 Schiaparelli Observatory.  Observer L. Buzzi.  0.84-m f/3.5 reflector +
    CCD.
595 Farra dIsonzo.  Observers U. Montanar, E. Pettarin, F. Piani.  Measurer
    E. Pettarin.  0.61-m f/4.5 reflector + CCD.
703 Catalina Sky Survey.  Observer R. A. Kowalski.  Measurers B. M. Africano,
    E. J. Christensen, G. A. Farneth, D. C. Fuls, A. R. Gibbs, A. D. Grauer,
    H. Groeller, R. A. Kowalski, S. M. Larson, G. J. Leonard, T. A. Pruyne,
    R. L. Seaman, F. C. Shelly.  0.68-m Schmidt + 10K CCD.
C95 SATINO Remote Observatory, Haute Provence.  Observer J. Jahn.  0.60-m
    f/3.2 Newtonian reflector + CCD.
I19 Observatorio El Gato Gris, Tanti.  Observer C. Colazo.  0.36-m f/10.70
    Schmidt-Cassegrain + CCD.
I52 Steward Observatory, Mt. Lemmon Station.  Observer R. A. Kowalski.
    Measurers B. M. Africano, E. J. Christensen, G. A. Farneth, D. C. Fuls,
    A. R. Gibbs, A. D. Grauer, H. Groeller, R. A. Kowalski, S. M. Larson,
    G. J. Leonard, T. A. Pruyne, R. L. Seaman, F. C. Shelly.  1.0-m reflector
    + CCD.
I93 St Pardon de Conques.  Observer F. Losse.  0.40-m f/3.7 reflector + CCD.
K88 GINOP-KHK, Piszkesteto.  Observer K. Sarneczky.  0.60-m Schmidt + CCD.
L01 Visnjan Observatory, Tican.  Observer K. Korlevic.  1.0-m f/2.9 reflector
    + CCD.
 
Orbital elements:
2019 EK                                                  Earth MOID = 0.0196 AU
Epoch 2019 Apr. 27.0 TT = JDT 2458600.5                 MPC
M  23.42640              (2000.0)            P               Q
n   0.64803644     Peri.   20.77748     -0.99319231     +0.05724226
a   1.3225226      Node   161.60551     -0.06711747     -0.99304201
e   0.2452815      Incl.   18.75355     +0.09520649     -0.10291201
P   1.52           H   26.5           G   0.15           U   6
Residuals in seconds of arc
190302 703  0.0   0.5-    190302 L01  0.0   0.1-    190303 204  0.0   0.1-
190302 703  0.4-  1.2+    190303 595  0.4+  1.1+    190303 I19  0.3-  0.4-
190302 I52  0.1-  0.4-    190303 595  0.2+  0.4+    190303 C95  0.3-  0.5-
190302 I52  0.2+  0.2+    190303 595  0.1-  1.0+    190303 I19  0.1+  0.3+
190302 I52  0.3-  0.7-    190303 595  0.2+  1.0+    190303 I19  0.5-  0.3+
190302 I93  0.4+  0.3-    190303 C95  0.2-  0.5-    190303 104  0.3+  0.3+
190302 I93  0.7+  0.5+    190303 C95  0.4-  0.2-    190303 104  0.2-  0.0
190302 I93  0.7+  0.2-    190303 204  0.2-  0.3-    190303 104  0.5-  0.5-
190302 L01  0.1+  0.1+    190303 204  0.5-  0.5-    190303 104  0.2+  0.5-
190302 L01  0.2+  0.0     190303 C95  0.2+  0.3-    190303 K88  0.1-  0.6+
190302 L01  0.0   0.2-    190303 204  0.2-  0.1-    190303 K88  0.3+  0.4+
190302 L01  0.1+  0.1+    190303 204  0.0   0.4-
190302 L01  0.0   0.1-    190303 I19  0.1-  0.8-

Ephemeris:
2019 EK                  a,e,i = 1.32, 0.25, 19                  q = 0.9981
Date    TT    R. A. (2000) Decl.     Delta      r     Elong.  Phase     V
2019 02 02    08 02 18.9 -48 00 56   0.1863  1.0739   113.7    57.2    25.1
...
2019 02 17    08 18 03.0 -45 34 49   0.09477 1.0355   117.8    57.6    23.5
...
2019 02 25    08 55 29.7 -35 44 20   0.04645 1.0200   129.6    48.4    21.7
...
2019 03 03    10 39 08.5 +11 13 08   0.01978 1.0109   174.7     5.2    18.4
2019 03 04    11 15 50.1 +27 38 00   0.01946 1.0096   158.6    21.0    19.0
2019 03 05    12 01 22.9 +42 13 30   0.02114 1.0083   141.7    37.6    19.7
...
2019 03 11    16 32 09.9 +64 03 40   0.05020 1.0024    99.1    78.0    22.7
...
2019 03 19    18 06 37.8 +61 13 16   0.09766 0.9984    89.0    85.4    24.4
...
2019 04 03    18 45 09.9 +58 28 19   0.1836  1.0035    85.9    83.6    25.8

A. U. Tomatic                (C) Copyright 2019 MPC           M.P.E.C. 2019-E32



More information about the Iaude mailing list